{"data":{"norad_id":53212,"epoch":"2026-09-19T09:16:01.428096Z","epoch_age_seconds":168556,"freshness":"FRESH","line1":"1 53212U 22084Z   26262.38612764  .00000829  00000+0  28020-4 0  9998","line2":"2 53212  97.2823 318.1869 0001057  68.1346 292.0009 15.33435880228579","mean_motion":15.3343588,"eccentricity":0.0001057,"inclination_deg":97.2823,"raan_deg":318.1869,"arg_perigee_deg":68.1346,"mean_anomaly_deg":292.0009,"bstar":2.802e-5,"rev_number":22857,"period_min":93.906763157257,"perigee_km":464.84692945356,"apogee_km":466.29368917874,"semimajor_km":6843.7073093161,"source":"CELESTRAK","updated_at":"2026-09-20T09:00:40.193200Z"}}